CW2718 Weather Reports


Display with metric or nautical units.
time (UTC)temp
F
wind
direction
speed
MPH
gust
MPH
rain 1hr
in
rain 24hr
in
rain mn
in
humidity
%
barometer
mb
20260902173117 70 107 2.0 4.0 0.01 0.09 0.01 94 1017.9
20260902172118 70 128 0.0 4.0 0.00 0.08 0.00 94 1017.8
20260902171117 70 97 1.0 4.0 0.00 0.08 0.00 93 1018.3
20260902170118 70 102 0.0 4.0 0.00 0.08 0.00 93 1018.6
20260902165118 70 115 0.0 4.0 0.00 0.08 0.00 94 1018.7
20260902164117 70 121 0.0 2.0 0.00 0.08 0.00 94 1018.7
20260902163117 70 113 0.0 4.0 0.00 0.08 0.00 94 1018.7
20260902162117 70 103 0.0 2.0 0.00 0.08 0.00 94 1018.9
20260902161118 70 111 0.0 3.0 0.00 0.08 0.00 94 1018.9
20260902160117 70 86 0.0 5.0 0.00 0.08 0.00 94 1018.5
20260902155117 70 116 0.0 7.0 0.00 0.08 0.00 95 1018.5
20260902154117 70 141 0.0 6.0 0.00 0.08 0.00 95 1018.4
20260902153118 70 78 4.0 6.0 0.00 0.08 0.00 95 1018.3
20260902152119 70 119 1.0 5.0 0.00 0.08 0.00 96 1018.3
20260902151118 70 115 0.0 2.0 0.00 0.08 0.00 96 1018.4
20260902150117 69 109 1.0 7.0 0.00 0.08 0.00 96 1018.4
20260902145117 69 119 0.0 0.0 0.00 0.08 0.00 96 1018.5
20260902144118 69 105 0.0 3.0 0.00 0.08 0.00 96 1018.4
20260902143118 69 112 2.0 4.0 0.00 0.08 0.00 96 1018.6
20260902142118 69 103 2.0 3.0 0.00 0.08 0.00 96 1018.6
20260902141117 69 103 0.0 0.0 0.00 0.08 0.00 96 1018.3
20260902140119 68 92 0.0 4.0 0.00 0.08 0.00 96 1018.3
20260902135117 68 108 0.0 9.0 0.00 0.08 0.00 96 1018.3
20260902134117 68 129 0.0 4.0 0.00 0.08 0.00 96 1018.2
20260902133118 69 97 3.0 4.0 0.00 0.08 0.00 96 1018.3
20260902132118 68 108 2.0 2.0 0.00 0.08 0.00 96 1018.2
20260902131118 68 100 0.0 4.0 0.00 0.08 0.00 96 1017.8
20260902130117 68 101 2.0 8.0 0.00 0.08 0.00 96 1017.9
20260902125117 68 109 0.0 4.0 0.00 0.08 0.00 96 1017.7
20260902124117 68 146 0.0 6.0 0.00 0.08 0.00 96 1017.8
20260902123117 68 108 0.0 4.0 0.00 0.08 0.00 96 1017.8
20260902122117 68 97 0.0 6.0 0.00 0.08 0.00 96 1017.8
20260902121117 68 338 0.0 6.0 0.00 0.08 0.00 96 1017.7
20260902120117 68 107 6.0 6.0 0.00 0.08 0.00 96 1017.7
20260902115117 68 113 0.0 6.0 0.00 0.08 0.00 96 1017.6
20260902114319 68 113 0.0 4.0 0.00 0.08 0.00 96 1017.6
20260902015120 72 252 0.0 0.0 0.00 0.09 0.09 91 1014.3
20260902014120 72 339 0.0 0.0 0.00 0.09 0.09 91 1013.9
20260902004120 74 339 0.0 0.0 0.08 0.09 0.09 87 1012.8
20260902003120 75 295 0.0 0.0 0.08 0.09 0.09 85 1012.5
20260902002120 76 297 0.0 9.0 0.07 0.08 0.08 83 1012.7
20260902001120 78 279 0.0 14.0 0.04 0.05 0.05 80 1013.4
20260901234120 85 188 0.0 1.0 0.00 0.01 0.01 76 1011.6
20260901233120 85 188 0.0 1.0 0.00 0.01 0.01 75 1012.2
20260901232120 86 188 0.0 0.0 0.00 0.01 0.01 73 1011.6
20260901231120 86 188 0.0 0.0 0.00 0.01 0.01 73 1011.7
20260901224120 88 188 0.0 1.0 0.00 0.01 0.01 70 1011.5
20260901223120 88 188 0.0 1.0 0.00 0.01 0.01 69 1011.8
20260901222120 88 188 0.0 2.0 0.00 0.01 0.01 68 1011.8
20260901221120 89 188 0.0 3.0 0.00 0.01 0.01 67 1011.9
20260901220120 89 181 0.0 1.0 0.00 0.01 0.01 67 1011.7
20260901215120 89 182 0.0 4.0 0.00 0.01 0.01 67 1011.8
20260901214120 89 211 0.0 3.0 0.00 0.01 0.01 67 1012.0
20260901212120 89 284 0.0 6.0 0.00 0.01 0.01 67 1012.2
20260901211120 89 286 4.0 4.0 0.00 0.01 0.01 66 1011.8
20260901210120 89 271 0.0 4.0 0.00 0.01 0.01 66 1012.0
20260901204120 89 182 1.0 8.0 0.00 0.01 0.01 65 1012.2
20260901203120 90 260 3.0 12.0 0.00 0.01 0.01 65 1012.3
20260901202120 90 279 0.0 6.0 0.00 0.01 0.01 65 1012.4
20260901201120 90 219 0.0 6.0 0.00 0.02 0.01 65 1012.2
20260901200120 90 244 2.0 7.0 0.00 0.02 0.01 65 1012.5
20260901195120 90 169 0.0 7.0 0.00 0.02 0.01 65 1012.4
20260901194120 89 275 0.0 6.0 0.00 0.02 0.01 67 1012.5
20260901193120 89 254 1.0 3.0 0.00 0.02 0.01 66 1012.6
20260901192120 90 269 0.0 4.0 0.00 0.02 0.01 65 1012.7
20260901191120 90 190 0.0 3.0 0.00 0.02 0.01 65 1012.7
20260901190120 90 181 1.0 7.0 0.00 0.02 0.01 65 1012.8
20260901185120 90 186 2.0 6.0 0.00 0.02 0.01 63 1013.0
20260901184121 90 227 0.0 8.0 0.00 0.02 0.01 64 1013.1
20260901183120 90 204 0.0 2.0 0.00 0.02 0.01 64 1013.2
20260901182120 91 190 0.0 3.0 0.00 0.02 0.01 63 1013.2
20260901181120 90 182 0.0 3.0 0.00 0.02 0.01 64 1013.2
20260901180120 90 277 0.0 6.0 0.00 0.02 0.01 64 1013.2
20260901175120 90 236 0.0 2.0 0.00 0.02 0.01 65 1013.3
20260901174120 90 217 0.0 7.0 0.00 0.02 0.01 65 1013.4